Tracking 17752 objects as of 30-June-2016
HD Live streaming from Space Station
objects crossing your sky now

COSMOS 2318 (GLONASS)

Track COSMOS 2318 (GLONASS) now!
COSMOS 2318 (GLONASS) is classified as:


NORAD ID: 23622
Int'l Code: 1995-037C
Perigee: 19,078.0 km
Apogee: 19,196.4 km
Inclination: 66.5 °
Period: 675.7 minutes
Semi major axis: 25508 km
RCS: 3.5243 m2 (large)
Launch date: July 24, 1995
Source: Commonwealth of Independent States (former USSR) (CIS)
Launch site: TYURATAM MISSILE AND SPACE COMPLEX (TTMTR)
SV:
Your satellite tracking list
Your tracking list is empty





NASA's NSSDC Master Catalog

Two Line Element Set (TLE):
1 23622U 95037C   16181.74380314 -.00000047 +00000-0 +00000-0 0  9998
2 23622 066.4866 321.7419 0023205 109.9086 141.8893 02.13101217162679
Source of the keplerian elements: AFSPC

N2YO: 945